RS-44
1 44909U 19096E   25227.39894646  .00000040  00000-0  10813-3 0  9998
2 44909  82.5234 182.8878 0218118 139.1005 222.6694 12.79742523263233
UPMSat 2
1 46276U 20061E   25227.46569758  .00117339  00000-0  64376-3 0  9995
2 46276  97.2368 304.5442 0001708 205.9939 154.1243 15.79449694275986
SALSAT
1 46495U 20068K   25227.49407525  .00007123  00000-0  30063-3 0  9996
2 46495  97.8663 208.6716 0009194 293.2701  66.7566 15.23584580268717
TUBIN
1 48900U 21059X   25227.55338274  .00044922  00000-0  43507-3 0  9996
2 48900  97.6782  42.5196 0002244 343.8075  16.3113 15.66275680230502
LEDSAT
1 49069U 21073D   25227.49758854  .00111623  00000-0  88036-3 0  9991
2 49069  97.3824 312.2729 0008783 190.5339 169.5741 15.71031441221909
CUTE
1 49263U 21088D   25227.18452769  .00015516  00000-0  27993-3 0  9994
2 49263  97.4473 305.4918 0006193   4.9272 355.2039 15.49827198214731
TeikyoSat 4
1 49396U 21102B   25227.51386779  .00002323  00000-0  15525-3 0  9992
2 49396  97.4063 263.5211 0010863 262.7821  97.2172 15.07886375206633
Z-Sat
1 49399U 21102E   25227.54152206  .00003647  00000-0  19878-3 0  9999
2 49399  97.3758 267.0667 0016693 227.7614 132.2203 15.14893354207110
KOSEN 1
1 49402U 21102H   25227.59216709  .00006273  00000-0  28457-3 0  9999
2 49402  97.3659 271.0485 0015232 198.1617 161.9076 15.21066370207474
HO-113
1 50466U 21131B   25227.56575937  .00000440  00000-0  15114-3 0  9997
2 50466  98.5096 316.5913 0003046 303.0845  57.0051 14.40880551191098
SNUGLITE 2
1 52899U 22065F   25227.63967441  .00001038  00000-0  21025-3 0  9991
2 52899  98.1775   8.9969 0006343 261.4704  98.5779 14.63348472166294
UmKA 1 (RS40S)
1 57172U 23091G   25227.55072435  .00005320  00000-0  27961-3 0  9994
2 57172  97.5528 282.5932 0015814 102.6844 257.6157 15.16010114117625
CubeBel-2 (EU11S)
1 57175U 23091K   25227.59434144  .00009042  00000-0  41714-3 0  9997
2 57175  97.5525 284.2097 0013443 108.4075 251.8623 15.20391535117732
ENSO
1 58470U 23185J   25227.56965637  .00081551  00000-0  87304-3 0  9993
2 58470  97.3671 305.1666 0006951 190.4324 169.6792 15.63570010 95473
EIRSAT-1
1 58472U 23185L   25227.56935921  .00353036  47957-4  12038-2 0  9995
2 58472  97.3558 308.7388 0007481 223.9771 136.0907 15.89722556 95711
SONATE-2
1 59112U 24043Q   25227.63026892  .00016983  00000-0  45938-3 0  9994
2 59112  97.5212   0.2755 0009915 230.9531 129.0831 15.37731153 80639
MO-122
1 60209U 24125G   25227.49613274  .00017406  00000-0  46182-3 0  9997
2 60209  97.2730  78.4386 0016191 254.5781 105.3676 15.38232968 62231
GRBBeta
1 60237U 24128C   25227.33716217  .00004499  00000-0  33605-3 0  9999
2 60237  61.9902 206.7088 0055999  71.7295 288.9878 15.03113693 60239
Curium One
1 60242U 24128H   25227.32269270  .00007927  00000-0  53722-3 0  9997
2 60242  61.9799 204.0150 0056010  68.1881 292.5157 15.05940695 60284
ROBUSTA-3A
1 60243U 24128J   25227.34664675  .00007089  00000-0  48944-3 0  9997
2 60243  61.9871 204.9883 0055189  65.8107 294.8740 15.05419780 60277
CatSat
1 60246U 24125J   25227.16204006  .00016882  00000-0  53670-3 0  9998
2 60246  97.2539  76.5378 0040323 214.7743 145.0863 15.31876094 60176
HYPERVIEW-1G (RS66S)
1 61772U 24199AP  25227.61787767  .00020443  00000-0  54748-3 0  9999
2 61772  97.3433  96.4153 0011066 318.0503  41.9894 15.37985538 87257
AO-123
1 61781U 24199AY  25227.60660281  .00006109  00000-0  21794-3 0  9997
2 61781  97.3455  94.5052 0014363 325.8162  34.2153 15.29152621 87127
ZIMSAT 2
1 61783U 24199BA  25227.59737718  .00041026  00000-0  85726-3 0  9999
2 61783  97.3398  97.6078 0009652 311.8789  48.1635 15.45342084 90486
HADES-R (SO-124)
1 62690U 25009CK  25227.20351316  .00039914  00000-0  12290-2 0  9990
2 62690  97.4054 307.9327 0003424 197.6645 162.4478 15.33523183 32344
HYDRA-T
1 62692U 25009CM  25227.17553343  .00040534  00000-0  12331-2 0  9998
2 62692  97.4055 307.9698 0003335 193.7452 166.3701 15.33903689 32347
JINJUSat 1B
1 63210U 25052A   25227.42511734  .00010427  00000-0  46003-3 0  9991
2 63210  97.4316 120.7280 0006405  90.8125 269.3845 15.21940642 23415
NUSHSAT 1
1 63211U 25052B   25227.27561511  .00012039  00000-0  52480-3 0  9990
2 63211  97.4306 120.6019 0006421  94.9855 265.2114 15.22313517 23394
TEVEL2-4
1 63213U 25052D   25227.23768320  .00011766  00000-0  51851-3 0  9992
2 63213  97.4225 120.3358 0005488 105.8932 254.2909 15.21952532 23383
TEVEL2-5
1 63214U 25052E   25227.63381761  .00011437  00000-0  50443-3 0  9998
2 63214  97.4224 120.7234 0005499 105.0381 255.1464 15.21930396 23449
TEVEL2-6
1 63215U 25052F   25227.44046966  .00011601  00000-0  51227-3 0  9997
2 63215  97.4227 120.5257 0005580 105.9537 254.2315 15.21886414 23412
TEVEL2-1
1 63217U 25052H   25227.19843388  .00011540  00000-0  51324-3 0  9994
2 63217  97.4197 120.1888 0005505 115.7963 244.3841 15.21641069 23379
TEVEL2-3
1 63218U 25052J   25227.19863250  .00011643  00000-0  51771-3 0  9995
2 63218  97.4200 120.1903 0005522 116.3915 243.7889 15.21645916 23376
TEVEL2-2
1 63219U 25052K   25227.13330062  .00011560  00000-0  51424-3 0  9993
2 63219  97.4199 120.1243 0005494 116.6163 243.5636 15.21634656 23363
TEVEL2-9
1 63237U 25052AD  25227.44989697  .00011112  00000-0  51248-3 0  9998
2 63237  97.4264 120.2885 0009466 132.2395 227.9645 15.20377441 23397
TEVEL2-7
1 63238U 25052AE  25227.25775491  .00011250  00000-0  52003-3 0  9996
2 63238  97.4264 120.0903 0009530 133.2027 227.0006 15.20296014 23367
TEVEL2-8
1 63239U 25052AF  25227.26114045  .00011061  00000-0  51181-3 0  9996
2 63239  97.4264 120.0841 0009526 133.5405 226.6623 15.20264882 23365
HYDRA-W
1 63490U 25052BL  25227.42112273  .00027071  00000-0  10379-2 0  9995
2 63490  97.4209 120.9843 0013449 129.7966 230.4459 15.26392306 23440
HADES-ICM (SO-125)
1 63492U 25052BN  25227.26201461  .00026175  00000-0  10230-2 0  9997
2 63492  97.4223 120.7523 0013984 134.7407 225.4972 15.25754023 23419
